timestamp,surface_pressure_avg,surface_temp_avg,battery_voltage,lat,long
2023-08-26 00:09:00+00:00,222.3381,18.9,12.33,47.84626,-54.09684
2023-08-26 00:19:00+00:00,225.7264,18.96,12.25,47.84626,-54.09684
2023-08-26 00:29:00+00:00,225.0847,18.98,12.25,47.84626,-54.09684
2023-08-26 00:39:00+00:00,222.8064,18.98,12.25,47.84626,-54.09684
2023-08-26 00:49:00+00:00,224.8965,18.98,12.25,47.84626,-54.09684
2023-08-26 00:59:00+00:00,226.3615,18.98,12.25,47.84626,-54.09684
2023-08-26 01:09:00+00:00,224.2031,18.99,12.25,47.84626,-54.09684
2023-08-26 01:19:00+00:00,224.0248,19.0,12.25,47.84626,-54.09684
2023-08-26 01:29:00+00:00,225.6664,19.0,12.25,47.84626,-54.09684
2023-08-26 01:39:00+00:00,225.2881,19.0,12.25,47.84626,-54.09684
2023-08-26 01:49:00+00:00,223.7097,19.01,12.25,47.84626,-54.09684
2023-08-26 01:59:00+00:00,226.1265,19.03,12.25,47.84626,-54.09684
2023-08-26 02:09:00+00:00,228.8332,19.03,12.25,47.84626,-54.09684
2023-08-26 02:19:00+00:00,229.1197,19.09,12.25,47.84626,-54.09684
2023-08-26 02:29:00+00:00,228.678,19.09,12.25,47.84626,-54.09684
2023-08-26 02:39:00+00:00,230.543,19.09,12.25,47.84626,-54.09684
2023-08-26 02:49:00+00:00,230.5864,19.08,12.25,47.84626,-54.09684
2023-08-26 02:59:00+00:00,229.9964,19.1,12.25,47.84626,-54.09684
2023-08-26 03:09:00+00:00,231.8748,19.1,12.25,47.84626,-54.09684
2023-08-26 03:19:00+00:00,237.2331,19.09,12.25,47.84626,-54.09684
2023-08-26 03:29:00+00:00,242.3448,19.09,12.25,47.84626,-54.09684
2023-08-26 03:39:00+00:00,245.598,19.1,12.25,47.84626,-54.09684
2023-08-26 03:49:00+00:00,249.7381,19.1,12.25,47.84626,-54.09684
2023-08-26 03:59:00+00:00,256.4298,19.1,12.25,47.84626,-54.09684
2023-08-26 04:09:00+00:00,261.4281,19.1,12.25,47.84626,-54.09684
2023-08-26 04:19:00+00:00,265.2013,19.17,12.25,47.84626,-54.09684
2023-08-26 04:29:00+00:00,268.2347,19.1,12.25,47.84626,-54.09684
2023-08-26 04:39:00+00:00,273.3847,19.03,12.25,47.84626,-54.09684
2023-08-26 04:49:00+00:00,276.6914,19.08,12.25,47.84626,-54.09684
2023-08-26 04:59:00+00:00,280.2998,19.0,12.25,47.84626,-54.09684
2023-08-26 05:09:00+00:00,282.7364,19.07,12.25,47.84626,-54.09684
2023-08-26 05:19:00+00:00,282.8314,19.1,12.25,47.84626,-54.09684
2023-08-26 05:29:00+00:00,280.1248,19.09,12.25,47.84626,-54.09684
2023-08-26 05:39:00+00:00,279.9315,19.0,12.25,47.84626,-54.09684
2023-08-26 05:49:00+00:00,285.0181,19.13,12.25,47.84626,-54.09684
2023-08-26 05:59:00+00:00,287.7213,19.16,12.25,47.84626,-54.09684
2023-08-26 06:09:00+00:00,287.2662,19.1,12.25,47.84626,-54.09684
2023-08-26 06:19:00+00:00,286.6946,19.0,12.17,47.84626,-54.09684
2023-08-26 06:29:00+00:00,288.628,19.01,12.17,47.84626,-54.09684
2023-08-26 06:39:00+00:00,289.0663,19.1,12.17,47.84626,-54.09684
2023-08-26 06:49:00+00:00,288.5896,19.1,12.17,47.84626,-54.09684
2023-08-26 06:59:00+00:00,288.3997,19.0,12.17,47.84626,-54.09684
2023-08-26 07:09:00+00:00,288.8863,19.0,12.17,47.84626,-54.09684
2023-08-26 07:19:00+00:00,288.4014,19.01,12.17,47.84626,-54.09684
2023-08-26 07:29:00+00:00,290.2847,19.07,12.17,47.84626,-54.09684
2023-08-26 07:39:00+00:00,293.7731,19.06,12.17,47.84626,-54.09684
2023-08-26 07:49:00+00:00,293.4097,19.08,12.17,47.84626,-54.09684
2023-08-26 07:59:00+00:00,290.0264,19.1,12.17,47.84626,-54.09684
2023-08-26 08:09:00+00:00,290.0498,19.1,12.17,47.84626,-54.09684
2023-08-26 08:19:00+00:00,287.8147,19.19,12.17,47.84626,-54.09684
2023-08-26 08:29:00+00:00,280.4147,19.25,12.17,47.84626,-54.09684
2023-08-26 08:39:00+00:00,274.043,19.3,12.17,47.84626,-54.09684
2023-08-26 08:49:00+00:00,271.508,19.34,12.17,47.84626,-54.09684
2023-08-26 08:59:00+00:00,266.6464,19.38,12.17,47.84626,-54.09684
2023-08-26 09:09:00+00:00,260.7213,19.3,12.17,47.84626,-54.09684
2023-08-26 09:19:00+00:00,256.6497,19.29,12.17,47.84626,-54.09684
2023-08-26 09:29:00+00:00,252.5748,19.2,12.17,47.84626,-54.09684
2023-08-26 09:39:00+00:00,244.9997,19.1,12.17,47.84626,-54.09684
2023-08-26 09:49:00+00:00,239.078,19.0,12.17,47.84626,-54.09684
2023-08-26 09:59:00+00:00,236.4731,19.0,12.17,47.84626,-54.09684
2023-08-26 10:09:00+00:00,234.2781,19.08,12.17,47.84626,-54.09684
2023-08-26 10:19:00+00:00,229.8198,19.1,12.33,47.84626,-54.09684
2023-08-26 10:29:00+00:00,224.8314,19.2,12.33,47.84626,-54.09684
2023-08-26 10:39:00+00:00,223.4365,19.2,12.33,47.84626,-54.09684
2023-08-26 10:49:00+00:00,222.2731,19.2,12.33,47.84626,-54.09684
2023-08-26 10:59:00+00:00,220.0698,19.2,12.33,47.84626,-54.09684
2023-08-26 11:09:00+00:00,218.9048,19.2,12.33,47.84626,-54.09684
2023-08-26 11:19:00+00:00,216.2014,19.2,12.57,47.84626,-54.09684
2023-08-26 11:29:00+00:00,214.9815,19.2,12.57,47.84626,-54.09684
2023-08-26 11:39:00+00:00,215.3348,19.2,12.57,47.84626,-54.09684
2023-08-26 11:49:00+00:00,212.8048,19.2,12.57,47.84626,-54.09684
2023-08-26 11:59:00+00:00,210.6931,19.2,12.57,47.84626,-54.09684
2023-08-26 12:09:00+00:00,212.5298,19.2,12.57,47.84626,-54.09684
2023-08-26 12:19:00+00:00,211.1797,19.2,12.65,47.84626,-54.09684
2023-08-26 12:29:00+00:00,208.6264,19.23,12.65,47.84626,-54.09684
2023-08-26 12:39:00+00:00,213.9431,19.25,12.65,47.84626,-54.09684
2023-08-26 12:49:00+00:00,218.7814,19.27,12.65,47.84626,-54.09684
2023-08-26 12:59:00+00:00,213.3765,19.29,12.65,47.84626,-54.09684
2023-08-26 13:09:00+00:00,211.2581,19.3,12.65,47.84626,-54.09684
2023-08-26 13:19:00+00:00,219.0548,19.3,12.65,47.84626,-54.09684
2023-08-26 13:29:00+00:00,221.0748,19.3,12.65,47.84626,-54.09684
2023-08-26 13:39:00+00:00,217.9816,19.3,12.65,47.84626,-54.09684
2023-08-26 13:49:00+00:00,219.2331,19.3,12.65,47.84626,-54.09684
2023-08-26 13:59:00+00:00,223.7431,19.3,12.65,47.84626,-54.09684
2023-08-26 14:09:00+00:00,226.6764,19.37,12.65,47.84626,-54.09684
2023-08-26 14:19:00+00:00,228.2014,19.3,12.65,47.84626,-54.09684
2023-08-26 14:29:00+00:00,231.6081,19.2,12.65,47.84626,-54.09684
2023-08-26 14:39:00+00:00,231.9748,19.2,12.65,47.84626,-54.09684
2023-08-26 14:49:00+00:00,231.278,19.17,12.65,47.84626,-54.09684
2023-08-26 14:59:00+00:00,232.8414,19.17,12.65,47.84626,-54.09684
2023-08-26 15:09:00+00:00,238.6231,19.16,12.65,47.84626,-54.09684
2023-08-26 15:19:00+00:00,243.0214,19.19,12.65,47.84626,-54.09684
2023-08-26 15:29:00+00:00,244.8881,19.19,12.65,47.84626,-54.09684
2023-08-26 15:39:00+00:00,249.6181,19.13,12.65,47.84626,-54.09684
2023-08-26 15:49:00+00:00,256.7581,19.16,12.65,47.84626,-54.09684
2023-08-26 15:59:00+00:00,262.3181,19.19,12.65,47.84626,-54.09684
2023-08-26 16:09:00+00:00,266.0564,19.0,12.65,47.84626,-54.09684
2023-08-26 16:19:00+00:00,268.628,19.0,12.65,47.84626,-54.09684
2023-08-26 16:29:00+00:00,274.7714,19.0,12.65,47.84626,-54.09684
2023-08-26 16:39:00+00:00,281.8314,18.91,12.65,47.84626,-54.09684
2023-08-26 16:49:00+00:00,288.5231,18.9,12.65,47.84626,-54.09684
2023-08-26 16:59:00+00:00,293.6597,18.9,12.65,47.84626,-54.09684
2023-08-26 17:09:00+00:00,301.8697,18.9,12.65,47.84626,-54.09684
2023-08-26 17:19:00+00:00,310.0231,18.9,12.57,47.84626,-54.09684
2023-08-26 17:29:00+00:00,313.2113,18.9,12.57,47.84626,-54.09684
2023-08-26 17:39:00+00:00,318.0179,18.89,12.57,47.84626,-54.09684
2023-08-26 17:49:00+00:00,322.5646,18.7,12.57,47.84626,-54.09684
2023-08-26 17:59:00+00:00,326.5396,18.77,12.57,47.84626,-54.09684
2023-08-26 18:09:00+00:00,327.7462,18.8,12.57,47.84626,-54.09684
2023-08-26 18:19:00+00:00,329.99300000000005,18.8,12.49,47.84626,-54.09684
2023-08-26 18:29:00+00:00,334.4247,18.5,12.49,47.84626,-54.09684
2023-08-26 18:39:00+00:00,332.2729,18.74,12.49,47.84626,-54.09684
2023-08-26 18:49:00+00:00,325.4363,18.7,12.49,47.84626,-54.09684
2023-08-26 18:59:00+00:00,326.9479,18.6,12.49,47.84626,-54.09684
2023-08-26 19:09:00+00:00,331.8613,18.4,12.49,47.84626,-54.09684
2023-08-26 19:19:00+00:00,333.5463,18.3,12.41,47.84626,-54.09684
2023-08-26 19:29:00+00:00,334.2396,18.38,12.41,47.84626,-54.09684
2023-08-26 19:39:00+00:00,337.4813,18.48,12.41,47.84626,-54.09684
2023-08-26 19:49:00+00:00,336.2646,18.5,12.41,47.84626,-54.09684
2023-08-26 19:59:00+00:00,330.1429,18.53,12.41,47.84626,-54.09684
2023-08-26 20:09:00+00:00,331.5564,18.59,12.41,47.84626,-54.09684
2023-08-26 20:19:00+00:00,334.3347,18.6,12.41,47.84626,-54.09684
2023-08-26 20:29:00+00:00,329.4929,18.7,12.41,47.84626,-54.09684
2023-08-26 20:39:00+00:00,324.043,18.78,12.41,47.84626,-54.09684
2023-08-26 20:49:00+00:00,322.1497,18.8,12.41,47.84626,-54.09684
2023-08-26 20:59:00+00:00,320.0297,18.8,12.41,47.84626,-54.09684
2023-08-26 21:09:00+00:00,309.5179,18.8,12.41,47.84626,-54.09684
2023-08-26 21:19:00+00:00,305.803,18.8,12.33,47.84626,-54.09684
2023-08-26 21:29:00+00:00,308.893,18.8,12.33,47.84626,-54.09684
2023-08-26 21:39:00+00:00,303.6113,18.8,12.33,47.84626,-54.09684
2023-08-26 21:49:00+00:00,289.7697,18.8,12.33,47.84626,-54.09684
2023-08-26 21:59:00+00:00,284.2047,18.8,12.33,47.84626,-54.09684
2023-08-26 22:09:00+00:00,283.2747,18.7,12.33,47.84626,-54.09684
2023-08-26 22:19:00+00:00,271.2297,18.7,12.33,47.84626,-54.09684
2023-08-26 22:29:00+00:00,261.0364,18.71,12.33,47.84626,-54.09684
2023-08-26 22:39:00+00:00,264.1631,18.76,12.33,47.84626,-54.09684
2023-08-26 22:49:00+00:00,265.0047,18.79,12.33,47.84626,-54.09684
2023-08-26 22:59:00+00:00,255.1548,18.8,12.33,47.84626,-54.09684
2023-08-26 23:09:00+00:00,250.1447,18.8,12.33,47.84626,-54.09684
2023-08-26 23:19:00+00:00,253.1448,18.8,12.33,47.84626,-54.09684
2023-08-26 23:29:00+00:00,253.0315,18.87,12.33,47.84626,-54.09684
2023-08-26 23:39:00+00:00,246.5297,18.9,12.33,47.84626,-54.09684
2023-08-26 23:49:00+00:00,243.6781,18.9,12.33,47.84626,-54.09684
2023-08-26 23:59:00+00:00,243.7631,18.99,12.33,47.84626,-54.09684
